Voltar ao catálogo

SL-8 DEB

AtivoVLEO
NORAD 1392·DEBRIS·🇷🇺 Russia

Lançado Mar 15, 1965 de Baikonur Cosmodrome

Loading…

Próximas Passagens (próximas 24 horas)

TLE

AtualizadoSource: Space-Track

Época: Sep 14, 2026, 06:31 UTC

1 01392U 65020AH  26257.27197054  .00029497  00000-0  96876-3 0  9995
2 01392  55.8353 199.5349 0107472 253.5230 105.3971 15.25942128109709

Acompanhe SL-8 DEB em tempo real com AllMySat

Download on the App Store